Погода Мыс Болванский

Погода Мыс Болванский : погода сейчас, прогноз погоды и архив. Всё, что Вы хотите узнать о погоде Мыс Болванский!

Поиск расширенной информации на нашем сайте:

Полезная информация: Эта компания taganrog.delinet.ru придала наглядности наработки взято отсюда

Другие новости

Новости СМИ2

Главная страница сайта

Новости сайта

02.10.2013

Напоминаем, что на нашем новом сайте вы можете получить высокодетализированные прогнозы погоды по пунктам России, СНГ и мира (включающие важные для авиации метеовеличины, такие как направление и скорость ветра, видимость, явления погоды, количество и форма облачности, нижняя и верхняя граница облачности), а также ознакомиться с разнообразными материалами по авиационной метеорологии и подборкой полезных ссылок на эту тему.

Сайт Метеоцентр.Азия посвящён разработке технологий оптимизации авиаметеорологического обслуживания, включая проектирование и перспективное создание нескольких автоматизированных авиаметеорологических систем:
- система выпуска высокодетальных прогностических карт явлений погоды для нижнего воздушного пространства по России и ближнему зарубежью;
- система верификации прогнозов TAF (выпускаемых синоптиками официальных АМСГ РФ и ближнего зарубежья) и AUTOTAF (выпускаемых сайтом Метеоцентр.Азия) - выявление ошибок, онлайн-сопоставление с фактической погодой METAR, автоматическое внесение коррективов в прогнозы при резком отклонении фактической погоды от прогноза, подсчёт оправдываемости прогнозов по элементам и в целом;
- система обработки, анализа и отображения авиаметеорологической информации для применения провайдерами метеорологической информации.

Рекомендуем: Где купить металлический шкаф litpolmebel.com.

Погода Мыс Болванский - сегодня

Время (UTC), дата Ветер
(°,м/с) 
Видим.   Явления Облачность Т
(°С)
Тd
(°С)
f(%) Тe
(°С)
Pmin
(гПа)
dP
(гПа)
Po
(мм)
O2
(г/м3)
Тmin Tmax R s Состояние
почвы
06 22.02.17 300 (СЗ) 7{14}  10 км  позёмок{ливн. осадки}  8/8 420 м 
[Sc]
-15.2 -16.8 88 -22  994  3.2  744  319           
12 22.02.17 тихо ()   20000 м    ясно 
-16 -17.7 87 -16  997.7  1.4  747  321           
18 22.02.17 180 (Ю) 10 км    ясно 
-19.5 -21.6 83 -25  1000.2  749  327           
21 22.02.17 120 (ЮВ) 10 км    ясно 
-15.2 -16.9 87 -17  1000.7  0.5  749  321           
00 23.02.17 140 (ЮВ) 10 км    8/0 средняя 
[Ac As]
-15 -16.6 88 -20  1002.4  1.7  751  321           
06 23.02.17 160 (Ю) 10 км    10/0 средняя 
[Ac und]
-14.2 -15.8 88 -16  1005.6  1.5  753  321           
09 23.02.17 150 (ЮВ) 2000 м  слаб. ливневой снег  9/8 300 м кучево-дожд., средняя, верхняя 
[Cb cap|As trans|Cs]
-13.6 -15 89 -16  1007.7  2.1  755  321           
12 23.02.17 180 (Ю) 20000 м  {ливн. осадки}  3/0 средняя 
[Ac trans]
-17 -18.8 86 -21  1010.2  2.4  757  327           
15 23.02.17 150 (ЮВ) 20000 м    1/0 средняя 
[Ac trans]
-21.8 -24.1 82 -26  1011.6  1.4  758  333    -12.6  0.0     
18 23.02.17 180 (Ю) 10 км    ясно 
-20.4 -22.5 83 -25  1012.6  1.1  758  332           
21 23.02.17 190 (Ю) 10 км    ясно 
-20.7 -22.8 83 -29  1013.9  1.3  759  333           
00 24.02.17 190 (Ю) 10-11{12}  10 км  позёмок  ясно 
-19.4 -21.6 83 -29  1014.7  0.7  760  331           
06 24.02.17 130 (ЮВ) 20000 м    8/0 средняя, верхняя 
[Ac trans|Ci fib]
-17.8 -20.6 79 -25  1016.8  1.1  762  330           
09 24.02.17 140 (ЮВ) 10-13{13}  20000 м  позёмок  4/0 средняя 
[Ac trans]
-18.3 -22.1 72 -28  1016.6  -0.2  761  330           
12 24.02.17 150 (ЮВ) 10-12{13}  20000 м  позёмок  3/0 верхняя 
[Ci fib]
-19.1 -22.8 73 -29  1016.1  -0.5  761  331           
18 24.02.17 160 (Ю) 13-17{17}  2000 м  метель  ясно 
-17.2 -19.7 81 -27  1013.2  -1.6  759  328           
21 24.02.17 160 (Ю) 13-16{18}  4000 м  метель  ясно 
-17.3 -19.6 82 -28  1012.6  -0.7  758  328           
00 25.02.17 150 (ЮВ) 12-16{18}  4000 м  метель  ясно 
-15.8 -18.1 82 -25  1011.3  -1.2  757  325           
06 25.02.17 160 (Ю) 14-18{20}  2000 м  метель  9/0 средняя, верхняя 
[Ac trans|Ci]
-13 -14.7 87 -22  1008.7  -1.2  755  321           
09 25.02.17 140 (ЮВ) 13-16{21}  4000 м  метель  10/0 средняя 
[Ac und]
-11.4 -13.2 86 -20  1008.2  -0.5  755  319           
12 25.02.17 150 (ЮВ) 13-17{18}  10 км  позёмок  10/0 средняя 
[Ac und]
-9.9 -11.5 88 -18  1006.7  -1.5  754  316           
18 25.02.17 170 (Ю) 16-20{21}  4000 м  метель  10/0 средняя 
[Ac und]
-8.8 -10.5 87 -18  1005.2  -0.2  753  314           
21 25.02.17 150 (ЮВ) 14-17{21}  10 км  позёмок  10/0 средняя 
[Ac und]
-8.8 -10.9 85 -17  1006.1  0.9  754  315           
00 26.02.17 130 (ЮВ) 12-16{19}  10 км  позёмок  10/0 средняя 
[Ac und]
-9.1 -11.5 83 -17  1005.6  -0.4  753  315           
06 26.02.17 120 (ЮВ) 15-18{19}  20000 м  позёмок  8/0 средняя, верхняя 
[Ac trans|Ci fib]
-4.9 -7.9 79 -12  1003.8  -0.8  752  309           
Время (UTC), дата Ветер
(°,м/с) 
Видим.   Явления Облачность Т
(°С)
Тd
(°С)
f(%) Тe
(°С)
Pmin
(гПа)
dP
(гПа)
Po
(мм)
O2
(г/м3)
Тmin Tmax R s Состояние
почвы

Для получения пояснительной информации подведите курсор к названию столбца.

ПОГОДА Мыс Болванский - архив

Всё, что Вы хотите узнать о погоде Мыс Болванский - удобно и подробно!

Выберите нужную дату (начиная с 1 января 2015* года) и нажмите кнопку "Найти".
Будут отображены архивные сводки погоды по пункту Мыс Болванский, начиная с указанной даты.


Отображать данные в формате CSV (для использования в таблицах Excel)


Внимание! Наш архив погоды предназначен исключительно для личного некоммерческого использования в познавательных целях. Если Вам необходимы официальные справки о состоянии погоды (для производственных, юридических, коммерческих и т.п. целей), обращайтесь в органы Росгидромета.

*Примечание: данная дата относится к архиву по метеостанциям СССР (Россия, СНГ, Балтия).
Архив по метеостанциям Зарубежной Европы и Азии (кроме Китая) хранится 10 дней, по другим регионам земного шара (Китай, Африка, Америка, Австралия, Океания) - 1 день.

Мыс Болванский - район местоположения метеостанции


Название, широта, долгота, высота метеостанции:
Мыс Болванский 70.4°ш. 59.1°д. 13 м над ур. моря [Российская Федерация]

Дополнительная информация

В oтличие oт бoльшинства пoгoдных сайтoв мы публикуем пoдрoбную метеoинфoрмацию в детальнoм прoфессиoнальнoм фoрмате.

Характеристики температуры и влажнoсти вoздуха измеряются на высoте 2 м в тени вдали oт зданий и деревьев.
Скoрoсть ветра измеряется на высoте 10 м (на урoвне рoста челoвека скoрoсть ветра ниже в 1.5-2 раза). Если метеoстанция нахoдится в гoрoде или в лесу, тo скoрoсть ветра занижена на 2-4 м/с пo сравнению с oткрытым местoм. Скoрoсть ветра над акватoриями крупных рек и oзёр, а также на вершинах хoлмoв на 2-5 м/с выше, чем в oбычных услoвиях.
Атмoсфернoе давление в разных тoчках местнoсти мoжет значительнo oтличаться oт давления на метеoстанции, в зависимoсти oт услoвий рельефа (при пoдъёме на 10 м давление пoнижается примернo на 1 мм рт.ст.).